Wind_Speed
20 21 19 19 21 22 23 25 26 26 26 27 30 32 33 37 37 35 34 37 38 41 44 45 47 46 46 44 40 39 37 39 38 38 40 33 15 17 13 19 30 46 48 38
18 19 19 21 24 25 26 27 27 28 30 32 32 32 34 32 32 34 38 40 42 44 45 45 47 46 45 43 42 38 36 35 33 32 32 30 23 8 14 12 23 43 48 45
18 20 22 23 25 27 29 30 31 32 31 32 33 31 32 33 35 38 40 41 45 46 44 46 46 45 41 40 39 37 35 34 32 30 27 25 19 15 14 16 19 26 41 44
21 22 24 25 28 30 31 32 33 33 33 34 33 37 36 39 39 41 43 46 46 44 45 43 40 39 39 35 34 35 32 31 31 31 28 25 20 15 14 16 19 24 31 37
23 25 27 28 29 30 31 32 34 35 36 38 39 43 42 44 45 47 47 46 42 40 37 35 34 34 33 32 33 34 32 30 30 29 25 24 23 19 16 14 20 23 27 31
26 27 28 29 31 32 34 36 38 39 41 43 45 48 44 43 43 43 41 36 32 30 29 30 29 29 30 32 33 34 33 31 32 28 27 23 22 19 18 16 14 13 17 25
28 30 32 34 35 37 39 41 43 46 46 44 40 36 33 33 34 35 32 31 28 29 27 29 29 30 30 31 31 32 34 35 34 32 28 27 23 21 18 17 16 18 19 19
34 35 37 39 40 41 42 41 41 43 39 35 34 35 31 30 32 33 32 33 34 33 30 30 32 32 34 34 34 35 34 34 34 35 34 29 28 25 23 20 18 19 20 24
40 40 39 38 38 36 35 32 32 33 34 34 33 33 33 32 36 34 36 38 38 37 36 37 37 37 37 38 37 35 35 34 36 38 37 34 29 29 28 26 24 23 22 23
34 34 31 31 31 30 30 29 31 32 37 38 38 38 39 38 37 38 41 42 44 41 40 42 42 44 43 43 42 42 40 38 35 36 38 39 37 32 31 31 29 28 29 29
33 32 31 29 30 29 30 32 34 37 39 43 45 46 46 42 47 44 45 48 49 48 47 49 48 49 47 48 48 47 47 45 43 41 40 41 42 41 37 36 37 35 34 34
29 32 29 29 32 34 36 38 40 43 45 47 48 48 45 44 47 51 53 54 56 54 53 56 56 57 58 57 56 55 53 50 48 47 46 45 44 45 45 44 43 43 42 42
32 37 38 37 37 40 43 44 46 48 50 50 53 53 51 50 54 53 56 60 61 61 62 61 59 58 57 56 55 54 53 52 52 51 51 49 48 47 47 47 48 48 49 49
40 41 43 46 47 48 48 49 52 52 55 55 60 55 54 54 59 62 63 64 64 62 62 61 61 60 59 58 57 54 53 52 52 53 55 56 55 55 55 54 53 52 51 51
45 49 50 47 49 52 53 54 57 59 60 64 59 66 61 66 65 63 62 62 63 63 62 61 61 61 59 58 58 59 59 58 57 58 59 60 61 62 62 62 60 59 58 57
49 54 55 53 55 56 58 59 59 61 62 65 63 63 64 65 66 65 65 64 64 63 63 62 60 59 59 60 60 61 61 61 63 63 63 65 65 66 66 65 66 65 64 65
55 57 58 60 61 63 64 63 65 64 65 66 65 64 65 66 66 65 65 64 62 61 61 61 61 63 63 64 65 65 65 64 64 65 66 67 67 67 68 69 69 69 68 67
60 60 62 64 64 68 67 69 70 70 68 69 69 69 69 68 66 68 70 69 68 68 67 66 65 65 65 65 66 65 65 65 65 66 66 65 65 65 66 67 67 68 68 69
60 61 64 66 66 66 67 68 68 71 73 73 70 68 69 71 70 69 71 71 71 71 72 70 70 70 69 67 67 67 66 66 66 66 65 65 65 64 64 65 66 66 66 66
59 59 61 62 63 69 71 72 71 71 72 72 72 72 73 73 74 70 71 72 72 73 72 72 72 73 70 69 69 68 67 67 68 68 68 68 69 68 68 68 68 69 70 69
62 61 61 62 66 72 71 69 69 72 73 74 75 75 75 75 77 76 73 73 74 74 75 76 75 76 76 75 74 73 72 71 71 70 70 70 71 71 70 70 70 70 70 70
64 65 66 68 70 72 70 70 73 75 74 76 74 74 74 75 77 79 79 78 78 78 80 81 80 79 78 79 80 78 76 74 72 70 69 68 68 68 69 70 69 69 70 69
65 65 70 70 67 69 70 74 73 75 77 77 79 79 80 80 80 80 80 80 79 80 81 81 82 80 79 77 76 75 72 69 68 66 64 63 61 61 61 61 61 61 62 64
62 65 67 68 68 73 74 73 73 74 75 76 76 78 80 82 82 82 82 82 81 80 78 78 76 74 72 68 63 58 58 55 55 57 54 53 53 52 51 52 52 53 52 52
61 64 68 74 75 76 75 77 77 77 78 78 77 77 77 77 77 76 75 73 69 66 63 60 58 54 51 48 45 44 45 48 51 52 52 51 51 51 51 50 50 50 49 49
63 69 74 74 75 79 79 79 79 81 80 78 77 75 72 69 67 65 59 51 46 41 43 46 40 40 39 40 41 43 47 53 58 58 59 58 58 57 56 57 54 51 49 45
Wind_Direction
251 258 250 249 252 256 258 262 266 274 280 284 290 295 298 300 302 302 305 308 309 309 311 312 311 312 312 312 317 319 326 333 340 347 356 345 352 224 273 228 221 225 229 220
253 253 255 258 260 263 266 269 273 277 283 288 293 295 297 299 302 305 306 305 306 306 308 307 308 309 311 313 317 319 323 329 336 343 352 350 339 294 270 273 225 225 233 242
259 263 266 270 273 272 271 274 279 284 287 290 294 297 299 300 301 300 300 301 302 304 305 305 307 309 312 315 315 316 319 325 333 338 344 354 333 312 284 263 252 239 236 245
270 272 274 273 271 273 277 279 282 286 291 295 297 296 298 299 300 299 299 301 302 303 304 306 308 309 310 312 310 314 317 321 329 334 336 340 345 338 283 266 251 245 238 239
275 275 275 276 277 278 280 284 288 292 295 297 296 296 298 298 298 298 299 300 303 303 307 308 312 312 312 311 311 311 313 317 321 324 327 329 334 331 335 297 262 248 242 239
275 275 276 277 280 283 287 289 290 292 294 295 295 297 302 302 303 303 304 307 306 310 313 315 315 315 315 315 313 311 311 310 314 314 318 318 317 321 317 312 307 285 259 247
276 278 280 281 283 286 288 291 293 293 294 297 302 305 314 317 313 311 314 309 309 313 311 311 311 311 312 311 312 313 312 310 308 309 308 310 306 303 303 301 295 285 277 266
278 279 280 282 285 287 290 294 296 297 299 302 307 312 317 317 313 312 310 305 306 306 305 302 298 300 303 307 309 310 308 305 304 302 302 300 300 294 290 288 285 277 276 273
280 280 282 286 289 291 294 296 296 297 298 303 307 311 314 317 310 310 304 300 299 302 300 300 296 293 297 297 299 303 303 301 297 296 294 293 290 288 285 281 278 275 272 269
285 287 289 290 290 290 291 293 298 302 304 304 305 308 309 311 306 303 298 296 296 297 296 294 294 292 294 293 294 297 297 297 294 291 292 293 291 283 278 276 272 270 271 270
286 285 288 288 285 286 289 294 298 299 300 301 304 307 309 311 305 301 297 294 294 296 296 293 293 293 293 293 293 293 293 293 292 289 284 282 285 285 276 273 274 271 268 264
290 290 294 293 293 293 294 296 298 298 299 300 305 301 307 302 299 297 296 295 294 296 295 294 295 294 292 291 292 292 290 289 286 285 284 282 279 277 277 274 268 266 267 266
296 295 298 296 296 295 294 295 296 296 299 301 299 302 304 299 296 293 291 291 293 292 293 294 292 291 290 290 289 287 286 284 284 282 280 279 277 275 276 277 277 274 269 265
298 299 298 301 301 301 300 300 299 300 301 300 299 301 296 295 292 293 295 293 293 293 292 291 291 292 291 289 287 284 281 279 277 276 276 276 276 276 276 275 275 275 275 274
294 297 297 298 297 296 299 299 299 301 301 297 298 297 299 295 295 293 291 290 290 289 289 289 289 288 287 286 286 285 283 279 276 276 276 276 276 276 276 276 275 274 273 273
290 292 293 293 293 295 295 297 300 297 296 296 297 297 293 294 293 293 292 290 288 287 287 286 287 288 287 284 283 281 280 280 280 279 277 276 275 275 275 275 276 275 274 273
290 292 292 294 295 295 296 299 298 298 297 297 297 295 294 293 294 293 290 288 287 287 288 287 285 285 284 283 283 283 283 282 279 277 275 275 275 274 273 273 272 272 272 271
289 291 291 293 293 295 300 299 299 298 297 297 297 297 297 296 294 292 291 293 293 292 290 290 289 287 286 286 285 283 281 279 278 277 277 277 276 276 275 274 273 272 272 272
288 290 291 293 294 297 298 297 297 296 296 295 296 295 292 291 291 294 293 292 291 290 290 291 291 291 290 288 286 285 283 281 280 280 279 279 278 277 276 275 275 274 274 274
290 288 290 292 292 296 297 297 296 295 294 295 294 292 293 294 294 293 290 291 291 292 292 291 290 289 288 286 286 286 285 284 282 281 281 280 279 278 276 275 274 274 274 273
290 290 292 292 292 296 296 295 293 292 293 291 292 294 294 295 295 294 292 291 292 292 290 289 289 289 290 291 290 288 287 286 284 283 282 281 281 280 278 276 275 274 273 274
289 291 292 290 293 295 295 293 291 290 292 294 294 294 293 292 292 291 291 290 289 289 289 289 289 289 289 289 289 290 290 289 288 286 284 282 280 279 278 277 276 275 274 272
287 289 289 291 294 293 292 291 293 295 294 294 294 294 293 292 291 291 290 288 286 285 285 287 288 289 289 291 293 294 294 293 291 289 287 285 283 281 280 278 277 276 275 274
288 289 289 289 288 287 291 292 291 291 292 293 292 291 291 291 291 291 289 289 288 287 288 288 290 292 293 294 294 294 292 291 289 288 286 283 281 278 277 277 276 275 274 274
292 289 288 289 291 290 292 293 293 294 294 294 293 292 291 290 290 289 288 288 287 286 286 288 292 294 293 289 287 285 286 288 287 286 285 283 280 277 272 270 271 272 272 273
290 289 290 292 292 293 294 295 297 297 296 296 296 295 294 294 295 294 293 290 288 289 285 289 290 292 293 293 293 291 292 293 292 289 288 290 286 279 275 270 265 264 267 269
Height
5822 5823 5822 5822 5822 5822 5821 5821 5820 5819 5816 5815 5812 5808 5805 5802 5798 5795 5791 5787 5782 5776 5771 5766 5760 5755 5749 5743 5738 5732 5726 5719 5711 5703 5693 5684 5676 5675 5677 5678 5682 5686 5689 5695
5820 5819 5819 5818 5818 5817 5817 5816 5814 5813 5810 5808 5806 5803 5799 5796 5792 5788 5783 5779 5774 5769 5764 5759 5754 5748 5742 5737 5731 5726 5722 5717 5710 5702 5694 5686 5681 5677 5677 5680 5682 5684 5688 5693
5816 5816 5815 5815 5813 5812 5812 5810 5808 5806 5804 5801 5798 5797 5793 5789 5785 5780 5776 5771 5766 5761 5757 5751 5746 5740 5736 5732 5727 5723 5718 5713 5708 5703 5696 5690 5684 5681 5679 5679 5682 5684 5685 5686
5812 5811 5810 5809 5809 5808 5805 5803 5801 5798 5796 5794 5792 5789 5786 5780 5776 5771 5766 5762 5757 5753 5748 5742 5737 5733 5729 5726 5722 5718 5714 5710 5705 5700 5696 5691 5686 5682 5680 5678 5677 5680 5681 5683
5808 5806 5805 5804 5803 5801 5799 5796 5794 5791 5788 5786 5784 5780 5777 5771 5766 5762 5757 5752 5748 5743 5739 5735 5731 5727 5722 5718 5715 5712 5708 5705 5701 5697 5693 5690 5686 5682 5679 5676 5675 5674 5676 5677
5802 5801 5800 5799 5797 5794 5791 5788 5785 5782 5780 5778 5775 5770 5768 5761 5756 5751 5747 5744 5740 5736 5733 5729 5725 5721 5717 5713 5709 5706 5703 5701 5697 5694 5690 5686 5683 5680 5677 5675 5674 5672 5671 5671
5797 5795 5793 5791 5788 5786 5783 5779 5774 5772 5770 5768 5763 5759 5756 5752 5747 5744 5741 5737 5735 5732 5728 5723 5719 5715 5712 5708 5705 5701 5698 5695 5692 5688 5685 5683 5679 5676 5673 5671 5670 5669 5668 5667
5789 5788 5785 5782 5780 5777 5773 5771 5767 5760 5760 5758 5755 5752 5749 5744 5740 5737 5734 5730 5728 5725 5722 5718 5714 5710 5706 5703 5700 5696 5692 5688 5685 5683 5680 5677 5675 5672 5670 5667 5665 5663 5662 5662
5780 5779 5777 5774 5770 5768 5765 5762 5759 5754 5752 5748 5747 5745 5742 5738 5733 5730 5726 5722 5719 5718 5715 5711 5708 5705 5701 5696 5692 5689 5685 5682 5679 5676 5672 5669 5668 5666 5663 5661 5659 5657 5656 5655
5772 5770 5769 5765 5763 5760 5757 5755 5751 5746 5741 5737 5737 5735 5732 5729 5724 5721 5717 5713 5709 5708 5705 5701 5698 5694 5691 5687 5683 5680 5676 5673 5670 5667 5665 5662 5660 5658 5655 5653 5651 5650 5649 5648
5762 5762 5762 5758 5755 5752 5749 5745 5741 5738 5734 5729 5726 5725 5719 5718 5709 5708 5704 5700 5697 5695 5693 5688 5686 5682 5679 5674 5670 5667 5665 5662 5659 5656 5653 5650 5649 5648 5646 5645 5643 5641 5640 5638
5755 5751 5752 5750 5746 5743 5739 5736 5732 5727 5725 5720 5717 5714 5712 5705 5700 5694 5690 5686 5682 5680 5678 5674 5671 5667 5664 5661 5658 5656 5653 5650 5648 5644 5641 5638 5635 5632 5632 5632 5632 5630 5630 5628
5747 5743 5740 5739 5738 5734 5730 5727 5721 5716 5713 5711 5704 5704 5698 5694 5685 5681 5676 5671 5668 5664 5662 5658 5655 5652 5649 5646 5642 5640 5637 5635 5632 5629 5627 5624 5622 5620 5617 5616 5615 5615 5616 5616
5733 5733 5731 5727 5723 5719 5716 5713 5708 5704 5699 5697 5691 5691 5685 5681 5673 5667 5662 5656 5651 5647 5643 5639 5636 5634 5632 5629 5626 5623 5619 5617 5615 5612 5610 5608 5605 5604 5603 5601 5600 5599 5597 5598
5721 5718 5715 5716 5712 5706 5704 5701 5696 5691 5685 5676 5686 5669 5673 5660 5656 5652 5647 5642 5636 5630 5627 5624 5620 5616 5613 5611 5609 5606 5604 5601 5598 5596 5594 5592 5589 5586 5584 5584 5583 5582 5581 5581
5708 5702 5698 5699 5694 5692 5689 5687 5682 5676 5671 5663 5662 5663 5648 5648 5640 5636 5631 5626 5622 5618 5613 5607 5603 5600 5596 5594 5591 5588 5585 5583 5581 5580 5577 5573 5570 5567 5565 5565 5563 5562 5562 5561
5696 5691 5684 5683 5679 5673 5674 5672 5664 5660 5654 5648 5645 5642 5637 5632 5626 5620 5614 5609 5604 5600 5597 5593 5588 5585 5580 5576 5572 5569 5566 5564 5561 5558 5555 5552 5550 5547 5545 5543 5541 5540 5540 5541
5678 5673 5666 5666 5662 5659 5657 5649 5643 5637 5634 5628 5623 5619 5615 5611 5607 5601 5592 5590 5585 5580 5575 5571 5567 5564 5561 5557 5554 5550 5547 5543 5540 5537 5536 5532 5529 5527 5524 5522 5520 5519 5518 5519
5664 5660 5650 5646 5644 5646 5646 5635 5630 5622 5617 5610 5605 5600 5594 5589 5588 5588 5572 5570 5565 5560 5555 5552 5548 5544 5540 5536 5531 5529 5527 5523 5520 5518 5515 5512 5509 5507 5504 5502 5500 5498 5498 5498
5651 5645 5638 5631 5623 5625 5625 5616 5609 5600 5597 5592 5586 5578 5574 5570 5566 5571 5559 5549 5546 5541 5536 5531 5526 5521 5518 5515 5509 5508 5505 5503 5499 5497 5495 5491 5488 5486 5483 5481 5479 5477 5475 5476
5633 5626 5620 5612 5601 5606 5603 5600 5594 5584 5583 5573 5566 5562 5556 5551 5544 5542 5538 5531 5523 5518 5513 5508 5504 5499 5494 5491 5486 5485 5483 5479 5476 5475 5473 5469 5466 5463 5460 5459 5456 5455 5454 5453
5615 5610 5603 5594 5589 5584 5584 5579 5574 5565 5562 5553 5551 5543 5535 5529 5524 5518 5512 5507 5503 5496 5490 5487 5482 5479 5475 5470 5463 5462 5459 5454 5453 5451 5449 5446 5443 5441 5438 5435 5433 5432 5430 5431
5599 5597 5584 5580 5581 5565 5560 5555 5553 5544 5538 5534 5526 5524 5515 5508 5502 5498 5493 5487 5482 5475 5470 5465 5459 5456 5454 5449 5442 5439 5434 5429 5427 5426 5425 5422 5420 5417 5414 5412 5411 5410 5407 5407
5584 5576 5570 5561 5566 5550 5545 5541 5534 5530 5520 5515 5509 5499 5492 5484 5479 5474 5469 5463 5457 5452 5447 5441 5437 5434 5433 5428 5424 5418 5414 5409 5405 5404 5402 5400 5398 5396 5394 5392 5390 5389 5388 5387
5568 5557 5549 5544 5540 5532 5529 5518 5512 5508 5500 5493 5488 5480 5471 5462 5459 5451 5447 5442 5436 5433 5430 5424 5420 5416 5415 5411 5408 5405 5400 5394 5389 5386 5384 5382 5379 5377 5376 5374 5373 5371 5372 5369
5546 5534 5527 5527 5518 5507 5508 5501 5490 5481 5476 5469 5461 5458 5449 5440 5435 5431 5427 5424 5420 5417 5416 5412 5408 5403 5401 5398 5396 5393 5387 5380 5373 5368 5365 5363 5360 5359 5357 5354 5355 5356 5354 5354